This is the latest recevied weather packets stored in our database for station/object OE8NDR-11. If no packets are shown the sender has not sent any weather packets the latest 10 day(s).
| Time | Temp. | Humidity | Pressure | Rain* | Wind** | Luminosity | Snow |
|---|---|---|---|---|---|---|---|
| 1777059221 | 13.89° C | 78% | 1014.8 hPa | 0 mm | - | - | - |
| 1777058921 | 13.89° C | 79% | 1014.8 hPa | 0 mm | - | - | - |
| 1777058621 | 13.89° C | 79% | 1014.7 hPa | 0 mm | - | - | - |
| 1777058321 | 13.89° C | 79% | 1014.7 hPa | 0 mm | - | - | - |
| 1777058021 | 13.89° C | 79% | 1014.6 hPa | 0 mm | - | - | - |
| 1777057721 | 14.44° C | 79% | 1014.7 hPa | 0 mm | - | - | - |
| 1777057421 | 14.44° C | 78% | 1014.6 hPa | 0 mm | - | - | - |
| 1777057121 | 14.44° C | 78% | 1014.6 hPa | 0 mm | - | - | - |
| 1777056821 | 14.44° C | 77% | 1014.7 hPa | 0 mm | - | - | - |
| 1777056521 | 14.44° C | 77% | 1014.7 hPa | 0 mm | - | - | - |
| 1777056221 | 14.44° C | 77% | 1014.6 hPa | 0 mm | - | - | - |
| 1777055921 | 14.44° C | 77% | 1014.6 hPa | 0 mm | - | - | - |
| 1777055621 | 14.44° C | 76% | 1014.7 hPa | 0 mm | - | - | - |
| 1777055321 | 15° C | 75% | 1014.6 hPa | 0 mm | - | - | - |
| 1777055021 | 15° C | 74% | 1014.5 hPa | 0 mm | - | - | - |
| 1777054721 | 15° C | 72% | 1014.4 hPa | 0 mm | - | - | - |
| 1777054421 | 15.56° C | 71% | 1014.2 hPa | 0 mm | - | - | - |
| 1777054121 | 15.56° C | 70% | 1014.2 hPa | 0 mm | - | - | - |
| 1777053821 | 16.11° C | 68% | 1014.1 hPa | 0 mm | - | - | - |
| 1777053521 | 16.67° C | 65% | 1014 hPa | 0 mm | - | - | - |
| 1777053221 | 16.67° C | 63% | 1014 hPa | 0 mm | - | - | - |
| 1777052921 | 17.22° C | 59% | 1013.8 hPa | 0 mm | - | - | - |
| 1777052621 | 17.78° C | 54% | 1013.9 hPa | 0 mm | - | - | - |
| 1777052321 | 17.78° C | 48% | 1013.9 hPa | 0 mm | - | - | - |
| 1777052021 | 17.78° C | 45% | 1013.8 hPa | 0 mm | - | - | - |
* Rain latest hour (hover to see other rain measurements)
** Current wind speed in m/s (hover to see current wind gust speed)